Flag for Canada Weather past 2 weeks in Toronto, Ontario, Canada

59 °F

Passing clouds.

Feels Like: 56 °F
Forecast: 35 / 52 °F
Wind: 18 mph from Southwest

Location: Toronto Pearson International Airport

Current Time: Nov 27, 2015 at 2:30:06 AM

Latest Report: Nov 27, 2015 at 2:00 AM

Visibility: 15 mi

Pressure: 30.27 "Hg

Humidity: 51%

Dew point: 41 °F

Location of TorontoLocation

Historic Weather in Toronto — Graph


Toronto temperature yesterday

Maximum temperature yesterday: 59 °F (at 2:00 PM)
Minimum temperature yesterday: 41 °F (at 12:00 AM)
Average temperature yesterday: 52 °F

Past Weeks' High & Low Weather Summary

High61 °F (Nov 19, 3:00 AM)93% (Nov 12, 2:00 AM)30.59 "Hg (Nov 12, 2:00 AM)
Low21 °F (Nov 23, 2:00 AM)39% (Nov 20, 1:00 PM)29.29 "Hg (Nov 12, 1:00 PM)
Average42 °F70%30.09 "Hg
* Reported Nov 12 1:00 AM — Nov 27 1:00 AM, Toronto, Weather by CustomWeather, © 2015

Note: Actual official high and low records may vary slightly from our data, if they occured in-between our weather recording intervals... More about our weather records


Toronto weather history for previous 24 hours

Time TempWeatherWind HumidityBarometerVisibility
1:00 AM
Fri, Nov 27
59 °FPassing clouds.21 mph51%30.28 "Hg15 mi
12:00 AM59 °FPassing clouds.20 mph51%30.29 "Hg15 mi
11:00 PM
Thu, Nov 26
59 °FPartly cloudy.16 mph55%30.29 "Hg15 mi
10:00 PM59 °FPassing clouds.20 mph55%30.30 "Hg15 mi
9:00 PM59 °FPartly cloudy.15 mph55%30.32 "Hg15 mi
8:00 PM59 °FPartly cloudy.17 mph55%30.32 "Hg15 mi
7:00 PM57 °FPartly cloudy.17 mph55%30.34 "Hg15 mi
6:00 PM57 °FPassing clouds.10 mph51%30.36 "Hg15 mi
4:00 PM59 °FMostly cloudy.12 mph51%30.39 "Hg15 mi
3:00 PM57 °FCloudy.17 mph55%30.39 "Hg15 mi
2:00 PM59 °FMostly cloudy.20 mph48%30.39 "Hg15 mi
1:00 PM57 °FMostly cloudy.10 mph51%30.42 "Hg15 mi
12:00 PM54 °FMostly cloudy.13 mph54%30.44 "Hg15 mi
11:00 AM52 °FOvercast.12 mph54%30.47 "Hg15 mi
10:00 AM52 °FMore clouds than sun.15 mph50%30.48 "Hg15 mi
9:00 AM50 °FMore clouds than sun.13 mph54%30.47 "Hg15 mi
8:00 AM50 °FMostly cloudy.12 mph54%30.47 "Hg15 mi
7:00 AM48 °FPassing clouds.15 mph54%30.45 "Hg15 mi
6:00 AM46 °FPartly cloudy.8 mph62%30.45 "Hg15 mi
5:00 AM46 °FPartly cloudy.8 mph62%30.45 "Hg15 mi
4:00 AM45 °FPassing clouds.6 mph66%30.45 "Hg15 mi
3:00 AM43 °FPassing clouds.6 mph71%30.46 "Hg15 mi
2:00 AM41 °FPassing clouds.6 mph81%30.46 "Hg15 mi
Weather by CustomWeather, © 2015

See weather overviewHow to use our weather pages